Tracking 18823 objects as of 21-October-2017
HD Live streaming from Space Station
objects crossing your sky now

COSMOS 2285

Track COSMOS 2285 now!
10-day predictions
COSMOS 2285 is classified as:


NORAD ID: 23189
Int'l Code: 1994-045A
Perigee: 979.1 km
Apogee: 1,018.0 km
Inclination: 74.0 °
Period: 104.9 minutes
Semi major axis: 7369 km
RCS: 1.9645 m2 (large)
Launch date: August 2, 1994
Source: Commonwealth of Independent States (former USSR) (CIS)
Launch site: PLESETSK MISSILE AND SPACE COMPLEX (PKMTR)
aabbcc
Your satellite tracking list
Your tracking list is empty





NASA's NSSDC Master Catalog

Two Line Element Set (TLE):
1 23189U 94045A   17294.48721087 -.00000026  00000-0 -42653-5 0  9990
2 23189  74.0274 295.9478 0026375 261.3410 254.8927 13.72273717163101
Source of the keplerian elements: AFSPC